星链-3200 (STARLINK-3200 )

导读 | 豆包AI

STARLINK-3200是美国SpaceX公司星链(Starlink)星座的卫星,于2021年12月2日发射升空,属于星链第一代组网卫星。星链作为全球规模最大低轨卫星互联网星座,可向全球偏远地区、海上航行船舶提供高速互联网接入服务,同时在灾害应急通信、军事通信保障等领域也发挥着重要作用。

Basic Information
目录编号:
49753
目录名称:
STARLINK-3200
国际标识:
2021-115AF
轨道中心:
EARTH
卫星名称:
星链-3200
卫星全名:
星链-3200 (STARLINK-3200 )
卫星状态:
在轨 (已飞行1563 天)
发射日期:
2021-12-02 UTC
国别 :
美国 (US)
星等 :
--
Orbit Information
数据来源 国际轨道数据 AOE轨道数据
星历时间 2026-03-14T15:02:45+0800
12小时前
查看轨道信息
2026-03-12T15:00:00+0800
2天前
查看轨道信息
半长轴 6918.011km 6917.881km
偏心率 0.0001627 0.0002032
轨道倾角 53.215° 53.215°
近地点辐角 79.604° 62.462°
升交点赤经 128.453° 137.441°
平近点角 280.513° 217.974°
近地点 538.748km 538.338km
远地点 541km 541.15km
周期 95.440分钟 95.438分钟
每日圈数 15.087975 15.088399
Detailed Information
固有亮度:
5
最大亮度:
2.5
卫星平台:
Starlink v1.5
覆盖范围:
全球
运营商:
太空探索技术公司
运营商所在国:
美国
制造商(研发单位):
太空探索技术公司
制造商所在国:
美国
使用方式:
暂无
Satellite Introduction
星链(Starlink)计划是由太空探索技术公司(SpaceX)提出的一个巨型低轨卫星互联网星座项目,计划在2019年至2024年间在太空搭建由约1.2万颗卫星组成的“星链”网络,其中1584颗将部署在地球上空550千米处的近地轨道,并从2020年开始工作。该卫星仍在工作。
2D Orbit Map
3D Orbit Map
Orbit Altitude Analysis Chart
Orbit Inclination Analysis Chart
Orbit Comprehensive Analysis Chart
View Comprehensive Chart